Flag for Russia Weather past 2 weeks in Volgograd, Russia

Now
30 °F

Sunny.


Feels Like: 16 °F
Forecast: 29 / 43 °F
Wind: 24 mph from Southeast

Location: Volgograd Airport

Current Time: Mar 30, 2015 at 10:40:18 AM

Latest Report: Mar 30, 2015 at 10:00 AM


Visibility: 10 mi

Pressure: 30.27 "Hg

Humidity: 51%

Dew point: 14 °F

Location of VolgogradLocation

Historic Weather in Volgograd — Graph

°F

Volgograd temperature yesterday

Maximum temperature yesterday: 37 °F (at 2:30 PM)
Minimum temperature yesterday: 25 °F (at 3:00 AM)
Average temperature yesterday: 29 °F

Past Weeks' High & Low Weather Summary

 TemperatureHumidityPressure
High63 °F (Mar 26, 1:30 PM)100% (Mar 16, 11:00 PM)30.66 "Hg (Mar 16, 11:00 PM)
Low16 °F (Mar 24, 4:30 AM)13% (Mar 28, 2:30 PM)29.71 "Hg (Mar 23, 1:00 AM)
Average36 °F56%30.30 "Hg
* Reported Mar 15 9:00 AM — Mar 30 9:30 AM, Volgograd, Weather by CustomWeather, © 2015

Note: Actual official high and low records may vary slightly from our data, if they occured in-between our weather recording intervals... More about our weather records

Advertising

Volgograd weather history for previous 24 hours

 ConditionsComfort  
Time TempWeatherWind HumidityBarometerVisibility
9:30 AM
Mon, Mar 30
30 °FSunny.29 mph51%30.27 "Hg10 mi
9:00 AM30 °FSunny.33 mph51%30.27 "Hg10 mi
8:30 AM27 °FSunny.31 mph59%30.27 "Hg10 mi
8:00 AM27 °FSunny.29 mph59%30.27 "Hg10 mi
7:30 AM25 °FSunny.29 mph63%30.27 "Hg10 mi
7:00 AM23 °FSunny.29 mph68%30.30 "Hg10 mi
6:30 AM23 °FSunny.26 mph68%30.30 "Hg10 mi
6:00 AM23 °FSunny.26 mph68%30.30 "Hg10 mi
5:30 AM23 °FClear.26 mph68%30.30 "Hg10 mi
5:00 AM23 °FClear.26 mph63%30.30 "Hg10 mi
4:30 AM25 °FClear.26 mph59%30.30 "Hg10 mi
4:00 AM25 °FClear.29 mph54%30.33 "Hg10 mi
3:30 AM25 °FClear.26 mph54%30.33 "Hg10 mi
3:00 AM25 °FClear.26 mph54%30.36 "Hg10 mi
2:30 AM27 °FClear.26 mph46%30.36 "Hg10 mi
2:00 AM27 °FClear.29 mph46%30.36 "Hg10 mi
1:30 AM27 °FClear.31 mph46%30.36 "Hg10 mi
1:00 AM27 °FClear.29 mph46%30.36 "Hg10 mi
12:00 AM27 °FClear.26 mph43%30.39 "Hg10 mi
11:30 PM
Sun, Mar 29
28 °FPassing clouds.29 mph40%30.42 "HgN/A
11:00 PM28 °FClear.29 mph40%30.42 "Hg10 mi
10:30 PM28 °FClear.26 mph37%30.42 "Hg10 mi
10:00 PM28 °FClear.29 mph37%30.45 "Hg10 mi
9:30 PM28 °FClear.29 mph34%30.45 "Hg10 mi
9:00 PM28 °FClear.29 mph34%30.45 "Hg10 mi
8:30 PM30 °FClear.31 mph31%30.45 "Hg10 mi
8:00 PM30 °FClear.24 mph31%30.45 "Hg10 mi
7:30 PM32 °FClear.31 mph27%30.45 "Hg10 mi
7:00 PM32 °FClear.31 mph27%30.45 "Hg10 mi
6:30 PM32 °FClear.31 mph25%30.45 "Hg10 mi
6:00 PM34 °FSunny.31 mph23%30.45 "Hg10 mi
5:30 PM34 °FPassing clouds.29 mph23%30.42 "HgN/A
5:00 PM34 °FSunny.31 mph23%30.42 "Hg10 mi
4:30 PM36 °FSunny.33 mph21%30.42 "Hg10 mi
4:00 PM36 °FSunny.29 mph21%30.45 "Hg10 mi
3:30 PM37 °FSunny.24 mph23%30.45 "Hg10 mi
3:00 PM37 °FSunny.31 mph23%30.45 "Hg10 mi
2:30 PM37 °FSunny.33 mph23%30.45 "Hg10 mi
2:00 PM36 °FSunny.26 mph25%30.45 "Hg10 mi
1:30 PM34 °FSunny.29 mph25%30.48 "Hg10 mi
1:00 PM34 °FSunny.26 mph23%30.48 "Hg10 mi
12:30 PM32 °FSunny.29 mph25%30.48 "Hg10 mi
12:00 PM30 °FSunny.29 mph26%30.48 "Hg10 mi
11:30 AM28 °FSunny.26 mph31%30.48 "Hg10 mi
11:00 AM28 °FSunny.31 mph31%30.48 "Hg10 mi
10:30 AM28 °FSunny.24 mph34%30.48 "Hg10 mi
10:00 AM27 °FSunny.26 mph43%30.48 "Hg10 mi
Weather by CustomWeather, © 2015

See weather overviewHow to use our weather pages